Year,Month,Day,Hour,Minute,Value (Times are PST for temperature in C)
2012,04,22,08,02,9.50
2012,04,22,08,03,9.60
2012,04,22,08,04,9.60
2012,04,22,08,05,9.70
2012,04,22,08,06,9.70
2012,04,22,08,07,9.80
2012,04,22,08,08,9.80
2012,04,22,08,09,9.90
2012,04,22,08,10,9.90
2012,04,22,08,11,10.00
2012,04,22,08,12,10.10
2012,04,22,08,13,10.20
2012,04,22,08,14,10.30
2012,04,22,08,15,10.50
2012,04,22,08,16,10.60
2012,04,22,08,17,10.70
2012,04,22,08,18,10.80
2012,04,22,08,19,10.90
2012,04,22,08,20,10.90
2012,04,22,08,21,11.00
2012,04,22,08,22,11.10
2012,04,22,08,23,11.10
2012,04,22,08,24,11.10
2012,04,22,08,25,11.20
2012,04,22,08,26,11.20
2012,04,22,08,27,11.30
2012,04,22,08,28,11.30
2012,04,22,08,29,11.30
2012,04,22,08,30,11.40
2012,04,22,08,31,11.40
2012,04,22,08,32,11.40
2012,04,22,08,33,11.40
2012,04,22,08,34,11.40
2012,04,22,08,35,11.40
2012,04,22,08,36,11.40
2012,04,22,08,37,11.40
2012,04,22,08,38,11.40
2012,04,22,08,39,11.40
2012,04,22,08,40,11.40
2012,04,22,08,41,11.40
2012,04,22,08,42,11.40
2012,04,22,08,43,11.40
2012,04,22,08,44,11.40
2012,04,22,08,45,11.50
2012,04,22,08,46,11.60
2012,04,22,08,47,11.60
2012,04,22,08,48,11.60
2012,04,22,08,49,11.60
2012,04,22,08,50,11.70
2012,04,22,08,51,11.70
2012,04,22,08,52,11.80
2012,04,22,08,53,11.90
2012,04,22,08,54,12.00
2012,04,22,08,55,12.10
2012,04,22,08,56,12.10
2012,04,22,08,57,12.20
2012,04,22,08,58,12.20
2012,04,22,08,59,12.30
2012,04,22,09,00,12.30
2012,04,22,09,01,12.40
2012,04,22,09,02,12.50
2012,04,22,09,03,12.60
2012,04,22,09,04,12.70
2012,04,22,09,05,12.70
2012,04,22,09,06,12.80
2012,04,22,09,07,12.90
2012,04,22,09,08,12.90
2012,04,22,09,09,13.00
2012,04,22,09,10,13.00
2012,04,22,09,11,13.10
2012,04,22,09,12,13.10
2012,04,22,09,13,13.20
2012,04,22,09,14,13.30
2012,04,22,09,15,13.30
2012,04,22,09,16,13.40
2012,04,22,09,17,13.50
2012,04,22,09,18,13.60
2012,04,22,09,19,13.60
2012,04,22,09,20,13.70
2012,04,22,09,21,13.70
2012,04,22,09,22,13.80
2012,04,22,09,23,13.90
2012,04,22,09,24,13.90
2012,04,22,09,25,14.00
2012,04,22,09,26,14.00
2012,04,22,09,27,14.10
2012,04,22,09,28,14.10
2012,04,22,09,29,14.10
2012,04,22,09,30,14.10
2012,04,22,09,31,14.10
2012,04,22,09,32,14.00
2012,04,22,09,33,14.00
2012,04,22,09,34,13.90
2012,04,22,09,35,13.80
2012,04,22,09,36,13.80
2012,04,22,09,37,13.70
2012,04,22,09,38,13.70
2012,04,22,09,39,13.60
2012,04,22,09,40,13.60
2012,04,22,09,41,13.60
2012,04,22,09,42,13.70
2012,04,22,09,43,13.70
2012,04,22,09,44,13.70
2012,04,22,09,45,13.80
2012,04,22,09,46,13.80
2012,04,22,09,47,13.80
2012,04,22,09,48,13.80
2012,04,22,09,49,13.90
2012,04,22,09,50,13.90
2012,04,22,09,51,14.00
2012,04,22,09,52,14.00
2012,04,22,09,53,14.10
2012,04,22,09,54,14.20
2012,04,22,09,55,14.20
2012,04,22,09,56,14.20
2012,04,22,09,57,14.20
2012,04,22,09,58,14.20
2012,04,22,09,59,14.20
2012,04,22,10,00,14.20
2012,04,22,10,01,14.20
2012,04,22,10,02,14.10
2012,04,22,10,03,14.00
2012,04,22,10,04,14.00
2012,04,22,10,05,14.00
2012,04,22,10,06,14.00
2012,04,22,10,07,14.00
2012,04,22,10,08,13.90
2012,04,22,10,09,13.90
2012,04,22,10,10,13.90
2012,04,22,10,11,13.90
2012,04,22,10,12,13.90
2012,04,22,10,13,13.80
2012,04,22,10,14,13.90
2012,04,22,10,15,14.00
2012,04,22,10,16,14.00
2012,04,22,10,17,14.10
2012,04,22,10,18,14.20
2012,04,22,10,19,14.20
2012,04,22,10,20,14.30
2012,04,22,10,21,14.30
2012,04,22,10,22,14.30
2012,04,22,10,23,14.30
2012,04,22,10,24,14.20
2012,04,22,10,25,14.10
2012,04,22,10,26,14.10
2012,04,22,10,27,14.00
2012,04,22,10,28,13.90
2012,04,22,10,29,13.90
2012,04,22,10,30,13.80
2012,04,22,10,31,13.80
2012,04,22,10,32,13.70
2012,04,22,10,33,13.80
2012,04,22,10,34,13.80
2012,04,22,10,35,13.90
2012,04,22,10,36,13.90
2012,04,22,10,37,13.90
2012,04,22,10,38,13.90
2012,04,22,10,39,13.90
2012,04,22,10,40,14.00
2012,04,22,10,41,14.00
2012,04,22,10,42,14.00
2012,04,22,10,43,14.10
2012,04,22,10,44,14.20
2012,04,22,10,45,14.20
2012,04,22,10,46,14.20
2012,04,22,10,47,14.20
2012,04,22,10,48,14.20
2012,04,22,10,49,14.30
2012,04,22,10,50,14.30
2012,04,22,10,51,14.30
2012,04,22,10,52,14.30
2012,04,22,10,53,14.30
2012,04,22,10,54,14.20
2012,04,22,10,55,14.20
2012,04,22,10,56,14.20
2012,04,22,10,57,14.20
2012,04,22,10,58,14.20
2012,04,22,10,59,14.20
2012,04,22,11,00,14.20
2012,04,22,11,01,14.20
2012,04,22,11,02,14.10
2012,04,22,11,03,14.10
2012,04,22,11,04,14.10
2012,04,22,11,05,14.20
2012,04,22,11,06,14.20
2012,04,22,11,07,14.30
2012,04,22,11,08,14.40
2012,04,22,11,09,14.50
2012,04,22,11,10,14.50
2012,04,22,11,11,14.60
2012,04,22,11,12,14.70
2012,04,22,11,13,14.80
2012,04,22,11,14,14.80
2012,04,22,11,15,14.80
2012,04,22,11,16,14.80
2012,04,22,11,17,14.80
2012,04,22,11,18,14.80
2012,04,22,11,19,14.80
2012,04,22,11,20,14.80
2012,04,22,11,21,14.80
2012,04,22,11,22,14.90
2012,04,22,11,23,15.00
2012,04,22,11,24,15.10
2012,04,22,11,25,15.20
2012,04,22,11,26,15.30
2012,04,22,11,27,15.30
2012,04,22,11,28,15.30
2012,04,22,11,29,15.30
2012,04,22,11,30,15.20
2012,04,22,11,31,15.20
2012,04,22,11,32,15.20
2012,04,22,11,33,15.30
2012,04,22,11,34,15.30
2012,04,22,11,35,15.30
2012,04,22,11,36,15.30
2012,04,22,11,37,15.30
2012,04,22,11,38,15.20
2012,04,22,11,39,15.00
2012,04,22,11,40,15.00
2012,04,22,11,41,14.90
2012,04,22,11,42,14.90
2012,04,22,11,43,14.80
2012,04,22,11,44,14.80
2012,04,22,11,45,14.80
2012,04,22,11,46,14.90
2012,04,22,11,47,14.90
2012,04,22,11,48,14.90
2012,04,22,11,49,14.80
2012,04,22,11,50,14.80
2012,04,22,11,51,14.80
2012,04,22,11,52,14.80
2012,04,22,11,53,14.80
2012,04,22,11,54,14.70
2012,04,22,11,55,14.60
2012,04,22,11,56,14.50
2012,04,22,11,57,14.50
2012,04,22,11,58,14.40
2012,04,22,11,59,14.50
2012,04,22,12,00,14.50
2012,04,22,12,01,14.50
2012,04,22,12,02,14.50
2012,04,22,12,03,14.50
2012,04,22,12,04,14.50
2012,04,22,12,05,14.40
2012,04,22,12,06,14.40
2012,04,22,12,07,14.30
2012,04,22,12,08,14.30
2012,04,22,12,09,14.30
2012,04,22,12,10,14.40
2012,04,22,12,11,14.50
2012,04,22,12,12,14.50
2012,04,22,12,13,14.50
2012,04,22,12,14,14.50
2012,04,22,12,15,14.50
2012,04,22,12,16,14.60
2012,04,22,12,17,14.60
2012,04,22,12,18,14.60
2012,04,22,12,19,14.50
2012,04,22,12,20,14.50
2012,04,22,12,21,14.50
2012,04,22,12,22,14.50
2012,04,22,12,23,14.60
2012,04,22,12,24,14.60
2012,04,22,12,25,14.60
2012,04,22,12,26,14.60
2012,04,22,12,27,14.70
2012,04,22,12,28,14.70
2012,04,22,12,29,14.80
2012,04,22,12,30,14.80
2012,04,22,12,31,14.80
2012,04,22,12,32,14.80
2012,04,22,12,33,14.80
2012,04,22,12,34,14.80
2012,04,22,12,35,14.70
2012,04,22,12,36,14.70
2012,04,22,12,37,14.60
2012,04,22,12,38,14.50
2012,04,22,12,39,14.60
2012,04,22,12,40,14.60
2012,04,22,12,41,14.50
2012,04,22,12,42,14.50
2012,04,22,12,43,14.40
2012,04,22,12,44,14.40
2012,04,22,12,45,14.40
2012,04,22,12,46,14.40
2012,04,22,12,47,14.40
2012,04,22,12,48,14.40
2012,04,22,12,49,14.40
2012,04,22,12,50,14.40
2012,04,22,12,51,14.30
2012,04,22,12,52,14.30
2012,04,22,12,53,14.20
2012,04,22,12,54,14.20
2012,04,22,12,55,14.30
2012,04,22,12,56,14.30
2012,04,22,12,57,14.30
2012,04,22,12,58,14.30
2012,04,22,12,59,14.30
2012,04,22,13,00,14.20
2012,04,22,13,01,14.20
2012,04,22,13,02,14.20
2012,04,22,13,03,14.20
2012,04,22,13,04,14.20
2012,04,22,13,05,14.20
2012,04,22,13,06,14.20
2012,04,22,13,07,14.20
2012,04,22,13,08,14.20
2012,04,22,13,09,14.20
2012,04,22,13,10,14.30
2012,04,22,13,11,14.40
2012,04,22,13,12,14.50
2012,04,22,13,13,14.70
2012,04,22,13,14,14.80
2012,04,22,13,15,14.80
2012,04,22,13,16,14.80
2012,04,22,13,17,14.80
2012,04,22,13,18,14.70
2012,04,22,13,19,14.60
2012,04,22,13,20,14.50
2012,04,22,13,21,14.50
2012,04,22,13,22,14.60
2012,04,22,13,23,14.70
2012,04,22,13,24,14.80
2012,04,22,13,25,14.80
2012,04,22,13,26,14.70
2012,04,22,13,27,14.60
2012,04,22,13,28,14.50
2012,04,22,13,29,14.50
2012,04,22,13,30,14.40
2012,04,22,13,31,14.50
2012,04,22,13,32,14.60
2012,04,22,13,33,14.80
2012,04,22,13,34,14.90
2012,04,22,13,35,15.00
2012,04,22,13,36,15.00
2012,04,22,13,37,15.10
2012,04,22,13,38,15.20
2012,04,22,13,39,15.30
2012,04,22,13,40,15.30
2012,04,22,13,41,15.30
2012,04,22,13,42,15.20
2012,04,22,13,43,15.10
2012,04,22,13,44,15.10
2012,04,22,13,45,15.00
2012,04,22,13,46,14.90
2012,04,22,13,47,14.90
2012,04,22,13,48,14.90
2012,04,22,13,49,14.90
2012,04,22,13,50,14.90
2012,04,22,13,51,14.90
2012,04,22,13,52,14.90
2012,04,22,13,53,14.90
2012,04,22,13,54,15.00
2012,04,22,13,55,15.10
2012,04,22,13,56,15.20
2012,04,22,13,57,15.30
2012,04,22,13,58,15.30
2012,04,22,13,59,15.50
2012,04,22,14,00,15.60
2012,04,22,14,01,15.70
2012,04,22,14,02,15.70
2012,04,22,14,03,15.70
2012,04,22,14,04,15.60
2012,04,22,14,05,15.60
2012,04,22,14,06,15.60
2012,04,22,14,07,15.60
2012,04,22,14,08,15.70
2012,04,22,14,09,15.70
2012,04,22,14,10,15.70
2012,04,22,14,11,15.80
2012,04,22,14,12,15.80
2012,04,22,14,13,15.80
2012,04,22,14,14,15.80
2012,04,22,14,15,15.80
2012,04,22,14,16,15.80
2012,04,22,14,17,15.80
2012,04,22,14,18,15.80
2012,04,22,14,19,15.80
2012,04,22,14,20,15.80
2012,04,22,14,21,15.70
2012,04,22,14,22,15.70
2012,04,22,14,23,15.60
2012,04,22,14,24,15.70
2012,04,22,14,25,15.70
2012,04,22,14,26,15.70
2012,04,22,14,27,15.70
2012,04,22,14,28,15.80
2012,04,22,14,29,15.80
2012,04,22,14,30,15.80
2012,04,22,14,31,15.90
2012,04,22,14,32,15.90
2012,04,22,14,33,15.90
2012,04,22,14,34,15.80
2012,04,22,14,35,15.80
2012,04,22,14,36,15.80
2012,04,22,14,37,15.70
2012,04,22,14,38,15.70
2012,04,22,14,39,15.80
2012,04,22,14,40,15.90
2012,04,22,14,41,16.10
2012,04,22,14,42,16.20
2012,04,22,14,43,16.20
2012,04,22,14,44,16.30
2012,04,22,14,45,16.30
2012,04,22,14,46,16.20
2012,04,22,14,47,16.20
2012,04,22,14,48,16.20
2012,04,22,14,49,16.30
2012,04,22,14,50,16.40
2012,04,22,14,51,16.60
2012,04,22,14,52,16.70
2012,04,22,14,53,16.70
2012,04,22,14,54,16.70
2012,04,22,14,55,16.70
2012,04,22,14,56,16.70
2012,04,22,14,57,16.80
2012,04,22,14,58,16.90
2012,04,22,14,59,17.00
2012,04,22,15,00,17.20
2012,04,22,15,01,17.20
2012,04,22,15,02,17.20
2012,04,22,15,03,17.10
2012,04,22,15,04,17.10
2012,04,22,15,05,17.10
2012,04,22,15,06,17.10
2012,04,22,15,07,17.10
2012,04,22,15,08,17.10
2012,04,22,15,09,17.30
2012,04,22,15,10,17.40
2012,04,22,15,11,17.50
2012,04,22,15,12,17.50
2012,04,22,15,13,17.60
2012,04,22,15,14,17.60
2012,04,22,15,15,17.60
2012,04,22,15,16,17.60
2012,04,22,15,17,17.70
2012,04,22,15,18,17.70
2012,04,22,15,19,17.80
2012,04,22,15,20,17.90
2012,04,22,15,21,17.90
2012,04,22,15,22,18.00
2012,04,22,15,23,18.10
2012,04,22,15,24,18.10
2012,04,22,15,25,18.00
2012,04,22,15,26,17.90
2012,04,22,15,27,17.90
2012,04,22,15,28,17.90
2012,04,22,15,29,17.80
2012,04,22,15,30,17.80
2012,04,22,15,31,17.70
2012,04,22,15,32,17.60
2012,04,22,15,33,17.60
2012,04,22,15,34,17.50
2012,04,22,15,35,17.60
2012,04,22,15,36,17.60
2012,04,22,15,37,17.70
2012,04,22,15,38,17.80
2012,04,22,15,39,17.90
2012,04,22,15,40,18.00
2012,04,22,15,41,18.20
2012,04,22,15,42,18.20
2012,04,22,15,43,18.30
2012,04,22,15,44,18.40
2012,04,22,15,45,18.50
2012,04,22,15,46,18.60
2012,04,22,15,47,18.60
2012,04,22,15,48,18.70
2012,04,22,15,49,18.70
2012,04,22,15,50,18.80
2012,04,22,15,51,18.80
2012,04,22,15,52,18.70
2012,04,22,15,53,18.70
2012,04,22,15,54,18.70
2012,04,22,15,55,18.70
2012,04,22,15,56,18.70
2012,04,22,15,57,18.80
2012,04,22,15,58,19.00
2012,04,22,15,59,19.10
2012,04,22,16,00,19.30
2012,04,22,16,01,19.30
2012,04,22,16,02,19.40
2012,04,22,16,03,19.40
2012,04,22,16,04,19.40
2012,04,22,16,05,19.40
2012,04,22,16,06,19.30
2012,04,22,16,07,19.20
2012,04,22,16,08,18.90
2012,04,22,16,09,18.70
2012,04,22,16,10,18.70
2012,04,22,16,11,18.70
2012,04,22,16,12,18.70
2012,04,22,16,13,18.80
2012,04,22,16,14,18.70
2012,04,22,16,15,18.60
2012,04,22,16,16,18.50
2012,04,22,16,17,18.50
2012,04,22,16,18,18.50
2012,04,22,16,19,18.60
2012,04,22,16,20,18.60
2012,04,22,16,21,18.70
2012,04,22,16,22,18.80
2012,04,22,16,23,18.80
2012,04,22,16,24,18.80
2012,04,22,16,25,18.70
2012,04,22,16,26,18.60
2012,04,22,16,27,18.40
2012,04,22,16,28,18.20
2012,04,22,16,29,18.10
2012,04,22,16,30,18.00
2012,04,22,16,31,17.90
2012,04,22,16,32,17.90
2012,04,22,16,33,17.90
2012,04,22,16,34,17.90
2012,04,22,16,35,18.00
2012,04,22,16,36,18.10
2012,04,22,16,37,18.20
2012,04,22,16,38,18.20
2012,04,22,16,39,18.20
2012,04,22,16,40,18.20
2012,04,22,16,41,18.20
2012,04,22,16,42,18.10
2012,04,22,16,43,18.10
2012,04,22,16,44,18.10
2012,04,22,16,45,18.00
2012,04,22,16,46,17.90
2012,04,22,16,47,17.80
2012,04,22,16,48,17.60
2012,04,22,16,49,17.30
2012,04,22,16,50,17.20
2012,04,22,16,51,17.20
2012,04,22,16,52,17.10
2012,04,22,16,53,17.00
2012,04,22,16,54,16.80
2012,04,22,16,55,16.70
2012,04,22,16,56,16.50
2012,04,22,16,57,16.40
2012,04,22,16,58,16.40
2012,04,22,16,59,16.40
2012,04,22,17,00,16.40
2012,04,22,17,01,16.40
2012,04,22,17,02,16.40
2012,04,22,17,03,16.40
2012,04,22,17,04,16.40
2012,04,22,17,05,16.40
2012,04,22,17,06,16.40
2012,04,22,17,07,16.40
2012,04,22,17,08,16.40
2012,04,22,17,09,16.50
2012,04,22,17,10,16.50
2012,04,22,17,11,16.40
2012,04,22,17,12,16.40
2012,04,22,17,13,16.30
2012,04,22,17,14,16.30
2012,04,22,17,15,16.20
2012,04,22,17,16,16.10
2012,04,22,17,17,16.10
2012,04,22,17,18,16.10
2012,04,22,17,19,16.10
2012,04,22,17,20,16.10
2012,04,22,17,21,16.00
2012,04,22,17,22,16.00
2012,04,22,17,23,16.10
2012,04,22,17,24,16.10
2012,04,22,17,25,16.10
2012,04,22,17,26,16.10
2012,04,22,17,27,15.90
2012,04,22,17,28,15.90
2012,04,22,17,29,15.90
2012,04,22,17,30,15.80
2012,04,22,17,31,15.60
2012,04,22,17,32,15.50
2012,04,22,17,33,15.40
2012,04,22,17,34,15.40
2012,04,22,17,35,15.40
2012,04,22,17,36,15.40
2012,04,22,17,37,15.40
2012,04,22,17,38,15.50
2012,04,22,17,39,15.60
2012,04,22,17,40,15.50
2012,04,22,17,41,15.50
2012,04,22,17,42,15.50
2012,04,22,17,43,15.50
2012,04,22,17,44,15.50
2012,04,22,17,45,15.50
2012,04,22,17,46,15.60
2012,04,22,17,47,15.60
2012,04,22,17,48,15.60
2012,04,22,17,49,15.60
2012,04,22,17,50,15.80
2012,04,22,17,51,15.80
2012,04,22,17,52,15.80
2012,04,22,17,53,15.80
2012,04,22,17,54,15.80
2012,04,22,17,55,15.80
2012,04,22,17,56,15.80
2012,04,22,17,57,15.80
2012,04,22,17,58,15.80
2012,04,22,17,59,15.80
2012,04,22,18,00,15.80
2012,04,22,18,01,15.80
2012,04,22,18,02,15.80
2012,04,22,18,03,15.80
2012,04,22,18,04,15.80
2012,04,22,18,05,15.80
2012,04,22,18,06,15.80
2012,04,22,18,07,15.80
2012,04,22,18,08,15.80
